Location: Haueneberstein
(48.8052°N, 8.2206°E)
Time: 10:01:36
(UTC+00:00)

Daily predictions for brighter satellites

Satellite Brightness Start Highest point End
(mag) Time Altitude Azimuth Time Altitude Azimuth Time Altitude Azimuth
BREEZE-M DEB (TANK) 3.6 19:27:18 10° SSW 19:30:33 39° SE 19:39:53 10° ENE
SL-16 R/B 2.5 19:34:37 10° NNW 19:40:14 58° ENE 19:45:49 10° SE
Cosmos 1151 Rocket 4.3 19:37:06 10° NNE 19:40:46 26° ENE 19:44:25 10° SE
ATLAS 5 CENTAUR R/B 4.0 19:39:49 10° NNW 19:43:42 21° NNE 19:48:05 10° ENE
Terra 3.7 19:41:33 10° E 19:44:24 16° ENE 19:47:15 10° NNE
RESURS DK-1 3.6 19:41:19 10° SW 19:45:21 48° NW 19:49:25 10° NNE
Cosmos 332 Rocket 3.9 19:42:02 10° NNW 19:46:58 87° ENE 19:51:53 10° SSE
Meteor 2-3 Rocket 4.1 19:41:52 10° SSE 19:47:17 48° E 19:52:46 10° NNE
SPOT 3 Rocket 3.7 19:43:01 10° SSE 19:48:09 60° ENE 19:53:19 10° N
Cosmos 1933 3.4 19:48:03 10° N 19:52:04 62° ENE 19:56:03 10° SSE
Cosmos 1271 Rocket 3.0 19:49:24 10° N 19:53:20 55° ENE 19:57:16 10° SSE
Gbstr 26 Del rocket 3.0 19:50:49 10° WNW 19:54:28 54° SSW 19:58:12 11° SE
Cosmos 1538 Rocket 4.1 19:51:11 10° SSW 19:56:23 83° WNW 20:01:36 10° NNE
OBJECT-B 3.5 19:55:11 10° SW 19:57:34 19° W 19:59:59 10° NW
SPOT 5 4.0 19:57:37 10° ESE 20:01:12 26° ENE 20:04:52 10° N
IGS 5A 3.5 19:57:26 10° SSE 20:01:35 83° WSW 20:05:45 10° NNW
Cosmos 2098 Rocket 3.1 19:58:27 10° SSW 20:01:43 62° WNW 20:05:44 10° N
ARIANE 5 R/B 3.7 19:58:58 10° SE 20:02:50 32° ENE 20:06:46 10° N
Meteor 2-19 Rocket 4.4 19:57:07 10° S 20:03:08 73° E 20:09:12 10° NNE
Ariane Rocket 3.7 20:02:20 10° S 20:07:17 55° W 20:12:16 10° NNW
Cosmos 1782 3.0 20:04:03 10° N 20:08:01 55° ENE 20:11:44 11° SSE
Landsat 7 3.9 20:03:59 10° SSE 20:08:44 82° WSW 20:13:32 10° NNW
Cosmos 1624 Rocket 4.5 20:06:38 10° NNW 20:11:41 49° ENE 20:16:05 14° SE
Cosmos 304 Rocket 4.2 20:07:45 10° NNW 20:12:29 60° WSW 20:17:11 10° S
Cosmos 2082 Rocket 3.6 20:07:55 10° SW 20:13:17 43° NW 20:18:43 10° NNE
Cosmos 220 Rocket 4.2 20:10:39 10° NNW 20:14:58 61° ENE 20:18:36 14° SE
ATLAS 3B R/B 3.9 20:12:40 10° NW 20:19:07 38° WSW 20:25:47 10° S
Cosmos 2360 Rocket 2.5 20:13:46 10° NNW 20:19:19 55° ENE 20:23:55 15° SE
ATLAS 2AS CENTAUR R/B 4.2 20:14:51 10° WSW 20:22:23 46° NW 20:29:40 10° NE
Cosmos 1174 4.3 20:21:49 10° NNW 20:24:35 31° NE 20:26:29 16° ESE
MetOp-B 4.2 20:19:13 10° SSE 20:24:35 80° WSW 20:29:59 10° NNW
Cosmos 1092 Rocket 4.1 20:20:38 10° S 20:26:55 88° W 20:33:19 10° N
ISS -1.2 20:28:51 10° WSW 20:30:04 12° SW 20:31:18 10° SSW
Cosmos 2151 3.9 20:27:40 10° SSW 20:31:49 51° WNW 20:36:01 10° N
NOSS 2-1 (C) 3.2 20:28:45 10° SSW 20:31:51 39° SE 20:35:00 10° NE
ERS-2 3.5 20:30:17 10° N 20:33:44 41° WNW 20:37:10 10° SW
Cosmos 2026 Rocket 4.0 20:29:35 10° S 20:35:55 88° E 20:42:13 10° N
Cosmos 2084 3.3 20:33:24 10° SSW 20:37:23 61° SE 20:41:31 10° NE
COSMOS 2455 3.9 20:34:51 16° SSE 20:38:01 25° ESE 20:42:46 10° NE
Cosmos 1812 2.8 20:34:16 10° N 20:38:06 59° ENE 20:40:31 21° SSE
NOSS 2-1 (D) 3.0 20:36:24 10° SSW 20:39:35 47° SE 20:42:50 10° NE
GP-B 3.1 20:35:21 10° N 20:39:49 89° E 20:44:01 11° S
Cosmos 2333 Rocket 2.9 20:35:00 10° NNW 20:40:22 42° NE 20:44:24 17° ESE
Cosmos 923 Rocket 4.2 20:37:12 10° SSW 20:42:32 76° WNW 20:47:55 10° NNE
SPOT 1/Viking Rocket 3.9 20:38:27 10° S 20:43:35 63° WSW 20:48:47 10° NNW
ERS-1 Rocket 3.1 20:40:25 18° SSE 20:44:04 65° ENE 20:49:03 10° N
USA 245 3.8 20:42:07 13° S 20:46:19 66° WSW 20:50:09 10° NNW
SL-27 R/B 2.7 20:44:41 19° S 20:46:56 47° ESE 20:50:25 10° NNE
Cosmos 2322 4.4 20:42:07 10° NNW 20:47:37 45° NE 20:51:30 19° ESE
USA 276 4.3 20:50:29 10° WSW 20:52:23 15° SW 20:53:10 14° SSW
Okean 3 Rocket 3.6 20:48:05 10° S 20:52:33 90° ESE 20:57:07 10° N
Cosmos 2056 Rocket 3.5 20:47:15 10° NNW 20:52:39 84° WSW 20:56:16 21° SSE
Cosmos 2237 Rocket 4.2 20:48:39 10° N 20:52:41 19° NE 20:56:42 10° E
Cosmos 1408 Rocket 3.8 20:50:55 22° SSE 20:53:27 49° E 20:57:39 10° NNE
Cosmos 2322 Rocket 2.7 20:48:08 10° NW 20:53:38 56° WSW 20:57:55 17° S
Meteor 2-14 Rocket 4.4 20:48:51 11° S 20:54:40 71° E 21:00:48 10° NNE
CARTOSAT-1 4.0 20:59:31 18° S 21:02:39 59° W 21:06:56 10° NNW
Meteor 1-10 Rocket 4.2 20:58:14 10° N 21:03:49 75° ENE 21:07:16 24° SSE
USA 234 4.1 20:58:20 10° E 21:04:34 48° N 21:10:47 10° WNW
Spot 2 Rocket 3.9 21:03:05 16° S 21:07:02 59° WSW 21:12:06 10° NNW
Cosmos 2219 Rocket 2.5 21:05:46 10° NNW 21:11:17 56° ENE 21:14:26 25° SE
Resurs 01 Rocket 4.0 21:11:10 10° SW 21:14:13 18° W 21:17:18 10° NW
BREEZE M DEB (TANK) 4.3 21:11:40 10° SW 21:15:56 55° SSE 21:42:34 10° E
Cosmos 1680 Rocket 4.3 21:11:26 10° SW 21:16:35 54° WNW 21:21:45 10° NNE
Cosmos 1151 Rocket 4.4 21:14:24 10° NNW 21:18:24 36° W 21:21:47 13° SSW
Cosmos 1515 Rocket 3.6 21:13:58 10° NNW 21:18:26 82° W 21:20:36 29° S
Terra 1.8 21:19:00 28° S 21:21:32 82° WSW 21:26:20 10° NNW
Cosmos 1553 Rocket 4.3 21:15:47 10° NNW 21:21:45 61° W 21:26:23 17° S
Cosmos 2285 Rocket 4.2 21:16:34 10° NNW 21:22:49 61° ENE 21:26:17 27° SE
Cosmos 2266 Rocket 4.0 21:19:57 24° S 21:23:47 67° E 21:30:01 10° NNE
SL-16 R/B 3.8 21:19:20 10° NW 21:23:58 26° WSW 21:28:19 11° SSW
Cosmos 2315 Rocket 4.2 21:21:23 10° N 21:27:40 60° ENE 21:30:56 29° SSE
ATLAS 5 CENTAUR R/B 2.6 21:23:59 10° NW 21:29:17 59° NE 21:33:05 24° ESE
Cosmos 2333 4.2 21:24:55 10° NNW 21:30:33 80° WSW 21:33:17 32° SSE
Cosmos 2228 Rocket 3.2 21:29:28 10° N 21:33:53 61° ENE 21:35:17 40° SE
NOSS 2-1 (E) 3.7 21:34:37 10° WSW 21:37:49 50° NW 21:41:16 10° NE
COSMOS 2428 2.8 21:33:11 10° NNW 21:38:54 73° ENE 21:41:31 33° SE
SPOT 5 3.7 21:36:48 22° SSW 21:39:08 38° W 21:43:18 10° NNW
ARIANE 5 R/B 4.0 21:36:31 17° SSW 21:39:16 32° W 21:43:16 10° NNW
Cosmos 883 Rocket 4.5 21:36:16 10° N 21:42:32 88° E 21:45:47 31° S
Cosmos 1862 4.5 21:39:48 16° SW 21:42:39 40° WNW 21:46:26 10° N
NOSS 3-1 (C) 4.2 21:37:11 10° NW 21:44:36 69° SW 21:49:23 29° SSE
Cosmos 1707 Rocket 4.4 21:40:52 10° N 21:44:56 37° ENE 21:45:57 32° ESE
Cosmos 292 Rocket 4.5 21:40:38 10° NW 21:45:11 45° WSW 21:47:10 29° SSW
IRIDIUM 106 4.3 21:41:14 10° N 21:46:29 73° E 21:48:29 38° SSE
Cosmos 1048 Rocket 4.0 21:48:39 39° SSE 21:50:14 57° ESE 21:55:16 10° NNE
Cosmos 1655 Rocket 4.3 21:54:13 19° SSW 21:58:55 65° WNW 22:05:19 10° N
COSMOS 2487 2.3 22:00:10 72° WSW 22:00:24 77° WNW 22:03:48 10° NNE
ALOS 2 3.8 21:59:22 27° E 22:00:31 31° ENE 22:04:23 10° N
USA 229 DEB 3.9 21:53:15 10° NW 22:00:35 81° SW 22:04:27 33° SSE
USA 229 3.9 21:53:21 10° NW 22:00:40 82° SW 22:04:33 33° SSE
Cosmos 972 Rocket 3.9 21:59:17 31° SSW 22:01:50 89° WNW 22:06:49 10° NNE
Cosmos 2360 Rocket 3.6 21:58:17 10° NW 22:03:00 28° WSW 22:05:41 19° SW
Cosmos 1805 Rocket 3.5 22:02:11 51° S 22:03:16 83° E 22:07:43 10° N
Cosmos 2084 Rocket 3.8 22:04:01 10° NW 22:08:09 59° NE 22:09:18 43° E
CZ-4C R/B 4.2 22:03:58 10° NW 22:09:54 33° NNE 22:16:50 10° E
USA 267 3.4 22:05:53 10° ENE 22:12:12 48° SE 22:14:48 32° S
Cosmos 1500 Rocket 4.4 22:11:54 26° SW 22:13:57 45° WNW 22:18:15 10° N
Cosmos 1980 4.0 22:09:40 10° NNW 22:15:17 58° ENE 22:17:31 35° ESE
NOSS 0 Rocket 3.9 22:10:10 10° NNW 22:16:27 82° ENE 22:18:53 40° SE
NOSS 3-1 (A) 4.2 22:13:39 10° NW 22:21:04 67° SW 22:25:00 35° SSE
COSMOS 2455 3.1 22:17:52 12° SW 22:23:26 70° NW 22:29:28 10° NNE
Cosmos 2333 Rocket 3.1 22:19:26 10° NW 22:24:36 38° WSW 22:26:23 30° SW
Cosmos 1452 Rocket 4.3 22:19:49 10° NW 22:24:44 41° WSW 22:26:16 33° SW
Lacrosse 5 2.7 22:25:50 33° ESE 22:25:50 33° ESE 22:29:24 10° ENE
Meteor 1-20 Rocket 4.2 22:23:03 41° SSW 22:25:09 87° W 22:30:56 10° NNE
Nadezhda 2 Rocket 4.5 22:23:24 40° S 22:25:55 80° E 22:32:22 10° N
COBE Rocket 3.8 22:26:51 53° SSW 22:27:50 71° W 22:32:33 10° NNW
Cosmos 972 4.5 22:28:20 45° SSW 22:30:05 84° ESE 22:35:13 10° NNE
BREEZE-M R/B 2.9 22:27:36 10° WSW 22:31:56 47° ESE 22:35:37 10° ENE
Cosmos 2297 Rocket 2.8 22:32:07 37° ESE 22:32:39 38° ESE 22:37:50 10° NE
Cosmos 1500 3.4 22:34:31 60° ENE 22:34:31 60° ENE 22:38:05 10° NNE
Sich 1 3.3 22:34:10 48° SW 22:35:06 61° WNW 22:39:24 10° N
Cosmos 1244 Rocket 4.4 22:34:48 42° S 22:37:04 88° E 22:43:19 10° N
Cosmos 2237 Rocket 2.2 22:32:00 10° NNW 22:37:43 77° ENE 22:39:29 46° SE
Cosmos 1470 Rocket 4.0 22:43:08 47° E 22:43:08 47° E 22:47:17 10° NNE
BREEZE-M DEB (TANK) 4.1 22:40:51 10° W 22:42:20 18° W 22:42:20 18° W
Cosmos 1633 Rocket 2.8 22:44:04 75° SSE 22:44:23 83° E 22:48:46 10° N
Cosmos 2227 Rocket 2.9 22:44:30 35° ESE 22:44:55 36° ESE 22:50:02 10° NE
Cosmos 1110 Rocket 4.4 22:41:57 10° NNW 22:47:06 50° WSW 22:48:10 43° SW
USA 234 3.2 22:42:59 24° ESE 22:47:13 83° NNE 22:53:49 10° NW
Cosmos 1933 Rocket 4.4 22:49:28 37° E 22:49:32 37° E 22:53:39 10° NNE
Cosmos 1331 Rocket 4.3 22:44:30 10° NNW 22:49:35 52° WSW 22:50:32 46° SW
APEX 4.3 22:48:05 40° SSW 22:50:24 90° SE 22:57:11 10° NNE
Cosmos 1666 Rocket 3.6 22:50:45 61° SW 22:51:22 71° WNW 22:55:50 10° N
Cosmos 2242 Rocket 4.5 22:49:03 10° N 22:53:10 37° ENE 22:53:45 36° E
Cosmos 1340 Rocket 3.8 22:54:24 34° ENE 22:54:24 34° ENE 22:57:31 10° NNE
Cosmos 2219 Rocket 3.4 22:50:17 10° NW 22:54:53 27° WSW 22:56:08 24° SW
Cosmos 1378 4.3 22:52:36 10° N 22:55:52 34° ENE 22:55:52 34° ENE
NOSS 2-2 (E) 4.4 22:53:08 10° NW 22:58:29 78° SW 23:00:50 44° SSE
Terra 4.3 22:58:45 10° WSW 23:00:03 11° W 23:01:21 10° WNW
Spot 4 4.5 23:03:05 40° WSW 23:03:49 43° W 23:08:26 10° NNW
SL-16 R/B 2.8 23:01:41 10° NNW 23:07:14 51° NE 23:09:38 31° ESE
ATLAS 5 CENTAUR R/B 3.1 23:08:46 10° WNW 23:13:54 35° WSW 23:14:35 34° SW
Cosmos 1862 Rocket 3.9 23:09:43 10° NNW 23:13:55 50° W 23:14:06 49° WSW
STPSAT 2 (USA 217) 4.4 23:09:51 10° NNW 23:14:27 90° E 23:14:46 78° SSE
Okean 3 4.5 23:11:35 10° N 23:15:34 36° ENE 23:16:01 35° E
COSMOS 2428 4.3 23:18:29 10° NW 23:22:34 21° W 23:23:31 20° WSW
NOSS 2-2 (C) 4.4 23:18:11 10° NW 23:23:28 66° SW 23:25:11 48° S
Meteor 2-4 Rocket 4.0 23:17:42 10° NNW 23:23:34 61° W 23:24:59 47° SSW
Intercosmos 25 Rocket 4.2 23:24:02 45° ESE 23:24:26 46° E 23:30:01 10° NNE
Cosmos 1743 4.4 23:25:44 23° E 23:25:44 23° E 23:28:28 10° NE
Cosmos 1666 3.0 23:26:25 62° WNW 23:26:25 62° WNW 23:30:02 10° N
Meteor 1-11 Rocket 4.0 23:25:58 46° SE 23:27:00 53° E 23:32:22 10° NNE
Cosmos 1703 Rocket 3.4 23:25:05 10° N 23:29:29 85° E 23:29:38 82° SE
Cosmos 1709 Rocket 4.0 23:30:39 48° SSE 23:32:30 73° E 23:38:53 10° NNE
PSLV R/B 3.9 23:29:02 10° NNE 23:33:45 57° E 23:34:07 55° ESE
Cosmos 1992 Rocket 3.9 23:30:28 10° NNW 23:35:45 90° ENE 23:36:41 61° SSE
ALOS 2 3.7 23:36:46 32° W 23:36:48 32° W 23:40:46 10° NNW
Meteor 1-5 Rocket 4.4 23:35:45 47° SW 23:37:23 70° WNW 23:43:19 10° N
Cosmos 909 Rocket 4.2 23:36:15 45° SSW 23:38:26 72° ESE 23:46:16 10° NE
Cosmos 1745 Rocket 4.2 23:39:16 41° SW 23:41:24 62° WNW 23:47:40 10° N
CZ-2D R/B 4.2 23:40:25 10° NE 23:43:36 16° E 23:45:32 13° ESE
Cosmos 2219 3.2 23:42:23 49° SW 23:44:02 81° WNW 23:49:51 10° NNE
Cosmos 1066 Rocket 4.2 23:41:16 10° NNW 23:47:12 90° E 23:48:43 52° S
Meteor 1-13 Rocket 4.2 23:45:26 10° NNW 23:51:11 73° W 23:52:26 54° SSW
Timation 1 Rocket 4.2 23:51:21 51° SSW 23:53:00 87° ESE 23:59:03 10° NNE
Meteor 1-23 Rocket 4.3 23:48:13 10° N 23:53:57 71° ENE 23:55:43 45° SE
